Willimantic, CT

6:35 PM EDT on October 22, 2019 (GMT -0400)
Windham

Weather History for KIJD - June, 2019

Change the Weather History Date:

Saturday, June 8, 2019

  Actual Average Record
Temperature  
Mean Temperature 66 °F -  
Max Temperature 81 °F 74 °F 92 °F (1984)
Min Temperature 53 °F 51 °F 35 °F (1958)
Cooling Degree Days 2    
Growing Degree Days 16 (Base 50)    
Moisture  
Dew Point 49 °F    
Average Humidity 60    
Maximum Humidity 96    
Minimum Humidity 28    
Precipitation  
Precipitation 0.00 in - - ()
Sea Level Pressure  
Sea Level Pressure 30.15 in    
Wind  
Wind Speed 3 mph ()    
Max Wind Speed 12 mph    
Max Gust Speed -    
Visibility 10.0 miles    
Events      
Averages and records for this station are not official NWS values.
T = Trace of Precipitation, MM = Missing Value Source: Averaged Metar Reports

Daily Weather History Graph

Daily Weather History Graph

Search for Another Location

Airport or City:

Astronomy

Jun. 08, 2019 Rise Set
Actual Time 5:14 AM EDT 8:21 PM EDT
Civil Twilight 4:40 AM EDT 8:55 PM EDT
Nautical Twilight 3:57 AM EDT 9:38 PM EDT
Astronomical Twilight 3:05 AM EDT 10:30 PM EDT
Moon 10:40 AM EDT (6/8) 12:19 AM EDT (6/8)
Length of Visible Light 16h 15m
Length of Day
15h 07m
Waxing Crescent, 32% of the Moon is Illuminated
Jun 8
Waxing Crescent
Jun 10
First Quarter
Jun 17
Full
Jun 25
Last Quarter
Jul 2
New

Hourly Weather History & Observations

Time (EDT) Temp. Dew Point Humidity Pressure Visibility Wind Dir Wind Speed Gust Speed Precip Events Conditions
12:52 AM 57.0 °F 54.0 °F 89% 30.01 in 10.0 mi Calm Calm - N/A   Clear
1:52 AM 57.0 °F 55.0 °F 93% 30.01 in 10.0 mi Calm Calm - N/A   Clear
2:52 AM 55.0 °F 53.1 °F 93% 30.04 in 10.0 mi North 4.6 mph - N/A   Clear
3:52 AM 55.0 °F 53.1 °F 93% 30.04 in 10.0 mi Calm Calm - N/A   Clear
4:52 AM 53.1 °F 51.1 °F 93% 30.07 in 10.0 mi Calm Calm - N/A   Clear
5:52 AM 53.1 °F 52.0 °F 96% 30.11 in 10.0 mi ENE 3.5 mph - N/A   Clear
6:52 AM 57.9 °F 54.0 °F 87% 30.13 in 10.0 mi NNE 3.5 mph - N/A   Clear
7:52 AM 64.9 °F 55.9 °F 73% 30.14 in 10.0 mi North 4.6 mph - N/A   Clear
8:52 AM 70.0 °F 48.0 °F 46% 30.15 in 10.0 mi ENE 11.5 mph - N/A   Clear
9:52 AM 72.0 °F 46.9 °F 41% 30.16 in 10.0 mi ENE 8.1 mph - N/A   Clear
10:52 AM 73.0 °F 46.0 °F 38% 30.16 in 10.0 mi ENE 5.8 mph - N/A   Clear
11:52 AM 75.0 °F 48.0 °F 38% 30.16 in 10.0 mi Calm Calm - N/A   Clear
12:52 PM 78.1 °F 45.0 °F 31% 30.17 in 10.0 mi Variable 4.6 mph - N/A   Clear
1:52 PM 79.0 °F 46.0 °F 31% 30.16 in 10.0 mi Variable 3.5 mph - N/A   Clear
2:52 PM 79.0 °F 43.0 °F 28% 30.16 in 10.0 mi Calm Calm - N/A   Clear
3:52 PM 80.1 °F 45.0 °F 29% 30.15 in 10.0 mi Calm Calm - N/A   Clear
4:52 PM 80.1 °F 45.0 °F 29% 30.15 in 10.0 mi Calm Calm - N/A   Clear
6:52 PM 73.9 °F 48.9 °F 41% 30.19 in 10.0 mi South 10.4 mph - N/A   Clear
7:52 PM 70.0 °F 48.0 °F 46% 30.21 in 10.0 mi South 8.1 mph - N/A   Clear
8:52 PM 64.9 °F 48.9 °F 56% 30.23 in 10.0 mi SSW 8.1 mph - N/A   Clear
9:52 PM 62.1 °F 48.0 °F 60% 30.26 in 10.0 mi SSW 6.9 mph - N/A   Clear
10:52 PM 60.1 °F 48.0 °F 64% 30.27 in 10.0 mi Calm Calm - N/A   Clear
11:52 PM 55.0 °F 48.9 °F 80% 30.27 in 10.0 mi Calm Calm - N/A   Clear